Weather History for St. Joseph, MO

Change the Weather History Date:

Tuesday, April 9, 2013

  Actual Average Record
Temperature  
Mean Temperature 59 °F 52 °F  
Max Temperature 77 °F 64 °F 88 °F (2011)
Min Temperature 41 °F 40 °F 20 °F (2007)
Degree Days  
Heating Degree Days 6 13  
Month to date heating degree days 126 130  
Since 1 July heating degree days 5079 5123  
Cooling Degree Days 0 1  
Month to date cooling degree days 0 2  
Year to date cooling degree days 0 4  
Growing Degree Days 13 (Base 50)    
Moisture  
Dew Point 56 °F    
Average Humidity 72    
Maximum Humidity 86    
Minimum Humidity 58    
Precipitation  
Precipitation 0.10 in 0.11 in 1.82 in (1978)
Month to date precipitation 1.04 0.83  
Year to date precipitation 4.13 4.57  
Sea Level Pressure  
Sea Level Pressure 29.71 in    
Wind  
Wind Speed 13 mph (South)    
Max Wind Speed 37 mph    
Max Gust Speed 44 mph    
Visibility 10 miles    
Events Rain    
T = Trace of Precipitation, MM = Missing Value Source: NWS Daily Summary

Daily Weather History Graph

Daily Weather History Graph

Search for Another Location

Airport:

Trip Planner

Search our weather history database for the weather conditions in past years. The results will help you decide how hot, cold, wet, or windy it might be!

Date:

Astronomy

Apr. 09, 2013 Rise Set
Actual Time 6:50 AM CDT 7:52 PM CDT
Civil Twilight 6:23 AM CDT 8:19 PM CDT
Nautical Twilight 5:50 AM CDT 8:52 PM CDT
Astronomical Twilight 5:16 AM CDT 9:26 PM CDT
Moon 6:13 AM CDT (4/9) 7:28 PM CDT (4/9)
Length of Visible Light 13h 56m
Length of Day
13h 01m
Waning Crescent, 1% of the Moon is Illuminated
Apr 9
Waning Crescent
Apr 10
New
Apr 18
First Quarter
Apr 25
Full
May 2
Last Quarter

Hourly Weather History & Observations

Time (CDT) Temp. Dew Point Humidity Pressure Visibility Wind Dir Wind Speed Gust Speed Precip Events Conditions
12:53 AM 66.9 °F 57.9 °F 73% 29.67 in 10.0 mi SE 11.5 mph - N/A   Overcast
1:53 AM 66.0 °F 57.9 °F 75% 29.67 in 10.0 mi SSE 6.9 mph - N/A   Overcast
2:53 AM 66.0 °F 57.0 °F 73% 29.63 in 10.0 mi SSE 11.5 mph - N/A   Overcast
3:53 AM 66.0 °F 57.0 °F 73% 29.63 in 10.0 mi SE 10.4 mph - N/A   Overcast
4:53 AM 66.0 °F 57.0 °F 73% 29.62 in 10.0 mi SE 12.7 mph - N/A   Overcast
5:53 AM 64.9 °F 57.0 °F 75% 29.64 in 10.0 mi SSE 13.8 mph - N/A   Overcast
6:53 AM 64.9 °F 57.0 °F 75% 29.64 in 10.0 mi SSE 13.8 mph - N/A   Overcast
7:53 AM 66.0 °F 57.0 °F 73% 29.66 in 10.0 mi SSE 12.7 mph - N/A   Overcast
8:53 AM 66.0 °F 57.9 °F 75% 29.72 in 9.0 mi SE 8.1 mph - N/A   Overcast
9:53 AM 66.0 °F 60.1 °F 81% 29.72 in 7.0 mi South 16.1 mph - 0.00 in   Overcast
10:53 AM 71.1 °F 59.0 °F 66% 29.70 in 10.0 mi South 21.9 mph 31.1 mph N/A   Clear
11:53 AM 73.0 °F 61.0 °F 66% 29.72 in 10.0 mi SSW 13.8 mph - N/A   Scattered Clouds
12:08 PM 73.4 °F 60.8 °F 65% 29.74 in 10.0 mi SSW 15.0 mph 19.6 mph N/A   Mostly Cloudy
12:23 PM 73.4 °F 60.8 °F 65% 29.74 in 10.0 mi South 16.1 mph - N/A   Scattered Clouds
12:32 PM 73.4 °F 60.8 °F 65% 29.74 in 10.0 mi South 16.1 mph - N/A   Mostly Cloudy
12:53 PM 73.9 °F 61.0 °F 64% 29.71 in 10.0 mi South 11.5 mph - N/A   Overcast
1:53 PM 75.0 °F 60.1 °F 60% 29.70 in 10.0 mi South 13.8 mph - N/A   Mostly Cloudy
2:53 PM 75.0 °F 60.1 °F 60% 29.70 in 10.0 mi South 16.1 mph - N/A   Mostly Cloudy
3:53 PM 75.9 °F 59.0 °F 56% 29.68 in 10.0 mi South 13.8 mph - N/A   Mostly Cloudy
4:53 PM 73.9 °F 59.0 °F 59% 29.67 in 10.0 mi South 15.0 mph - N/A   Overcast
5:53 PM 69.1 °F 57.9 °F 68% 29.70 in 10.0 mi NNW 8.1 mph - N/A   Overcast
6:53 PM 60.1 °F 53.1 °F 78% 29.71 in 10.0 mi NNW 5.8 mph - N/A   Overcast
7:53 PM 60.1 °F 53.1 °F 78% 29.73 in 10.0 mi NNW 11.5 mph - N/A   Overcast
8:09 PM 59.0 °F 51.8 °F 77% 29.74 in 10.0 mi North 10.4 mph - N/A   Overcast
8:53 PM 57.0 °F 51.1 °F 81% 29.73 in 10.0 mi North 12.7 mph - N/A   Overcast
9:15 PM 55.4 °F 50.0 °F 82% 29.76 in 10.0 mi NNW 12.7 mph - 0.00 in Rain Light Rain
9:53 PM 54.0 °F 48.9 °F 83% 29.77 in 10.0 mi NNW 12.7 mph - 0.00 in   Overcast
10:25 PM 51.8 °F 48.2 °F 88% 29.76 in 10.0 mi NNW 15.0 mph - N/A   Overcast
10:34 PM 51.8 °F 48.2 °F 88% 29.78 in 10.0 mi NNW 13.8 mph - N/A   Overcast
10:53 PM 51.1 °F 46.9 °F 86% 29.78 in 9.0 mi NNW 19.6 mph 23.0 mph N/A   Overcast
11:53 PM 48.0 °F 44.1 °F 86% 29.79 in 10.0 mi North 17.3 mph - N/A   Overcast